Date,TemperatureHighF,TemperatureAvgF,TemperatureLowF,DewpointHighF,DewpointAvgF,DewpointLowF,HumidityHigh,HumidityAvg,HumidityLow,PressureMaxIn,PressureMinIn,WindSpeedMaxMPH,WindSpeedAvgMPH,GustSpeedMaxMPH,PrecipitationSumIn
2014-2-1,58.9,43.4,31.3,38.4,30.9,22.6,94,66,26,30.08,29.95,3,0,10,0.00
2014-2-2,40.1,37.7,36.5,38.0,34.6,32.4,92,89,82,29.98,29.82,0,0,0,0.02
2014-2-3,55.0,44.4,35.3,41.3,37.1,33.5,96,78,50,29.98,29.89,2,0,0,0.00
2014-2-4,54.7,45.5,32.1,40.0,35.7,30.0,95,71,45,30.08,29.98,1,0,5,0.00
2014-2-5,54.7,43.5,30.4,43.8,37.0,28.4,96,80,46,30.11,29.96,2,0,7,0.11
2014-2-6,52.2,48.0,44.2,49.7,46.3,42.6,96,94,89,29.97,29.81,0,0,3,0.43
2014-2-7,53.5,50.6,47.6,51.8,49.2,46.5,97,95,92,30.00,29.89,1,0,5,0.34
2014-2-8,58.0,55.2,51.7,56.9,54.2,50.6,97,96,96,30.06,29.94,2,0,7,0.91
2014-2-9,58.3,56.8,55.3,57.3,56.0,54.5,97,97,96,30.06,29.96,1,0,9,1.12
2014-2-10,60.1,54.5,48.8,55.7,52.3,47.7,98,93,76,30.18,30.00,2,0,7,0.01
2014-2-11,63.9,51.9,43.9,52.2,47.2,42.8,97,85,55,30.16,30.06,1,0,5,0.00
2014-2-12,65.5,52.6,41.8,50.1,46.1,40.5,97,81,46,30.20,30.08,1,0,5,0.00
2014-2-13,70.9,58.3,49.9,56.7,52.9,48.2,96,83,59,30.11,30.00,2,0,6,0.00
2014-2-14,64.2,56.9,48.8,55.2,52.1,46.6,96,85,64,30.07,29.95,2,0,10,0.00
2014-2-15,60.9,52.7,45.7,54.2,49.1,44.1,97,88,71,29.96,29.89,2,0,12,0.03
2014-2-16,62.7,51.9,40.3,53.7,42.2,27.9,97,74,27,30.11,29.93,1,0,7,0.01
2014-2-17,61.8,47.9,36.2,45.4,39.0,33.8,97,75,36,30.09,30.01,2,0,9,0.00
2014-2-18,65.2,50.6,38.3,49.4,42.9,36.7,96,78,43,30.11,29.99,2,0,9,0.00
2014-2-19,64.5,53.7,43.5,50.9,44.0,38.1,96,73,39,30.12,30.00,2,0,7,0.02
2014-2-20,66.3,50.6,37.2,45.6,36.9,29.6,96,66,27,30.12,30.01,2,0,7,0.00
2014-2-21,70.3,52.3,37.8,44.5,38.6,33.6,96,65,28,30.02,29.88,1,0,6,0.00
2014-2-22,70.1,53.0,38.8,46.7,38.9,32.7,96,65,26,29.93,29.82,2,0,7,0.00
2014-2-23,70.3,53.8,40.6,47.9,44.0,38.5,96,73,36,29.94,29.85,1,0,5,0.00
2014-2-24,71.6,53.3,38.6,48.3,42.7,36.8,97,71,36,29.91,29.81,2,0,7,0.00
2014-2-25,68.6,52.9,42.1,49.8,45.1,40.1,96,77,39,29.87,29.79,4,0,15,0.00
2014-2-26,58.0,54.6,49.8,55.2,51.8,46.6,96,91,81,29.85,29.59,2,0,6,0.76
2014-2-27,64.2,56.0,52.2,53.1,50.0,46.2,95,81,54,29.80,29.42,1,0,9,0.14
2014-2-28,59.2,53.4,49.8,55.7,51.3,48.1,97,93,77,29.45,29.28,1,0,6,1.21